New Ulm, MN

10:58 AM CST on December 11, 2019 (GMT -0600)
New Ulm Municipal

Weather History for KULM - October, 2019

Change the Weather History Date:

Sunday, October 27, 2019

  Actual Average Record
Temperature  
Mean Temperature 38 °F -  
Max Temperature 42 °F 58 °F 79 °F (1983)
Min Temperature 30 °F 37 °F 14 °F (1976)
Degree Days  
Heating Degree Days 28    
Moisture  
Dew Point 32 °F    
Average Humidity 79    
Maximum Humidity 93    
Minimum Humidity 60    
Precipitation  
Precipitation 0.00 in - - ()
Sea Level Pressure  
Sea Level Pressure 29.85 in    
Wind  
Wind Speed 12 mph ()    
Max Wind Speed 21 mph    
Max Gust Speed 29 mph    
Visibility 10.0 miles    
Events      
Averages and records for this station are not official NWS values.
T = Trace of Precipitation, MM = Missing Value Source: Averaged Metar Reports

Daily Weather History Graph

Daily Weather History Graph

Search for Another Location

Airport or City:

Astronomy

Oct. 27, 2019 Rise Set
Actual Time 7:48 AM CDT 6:14 PM CDT
Civil Twilight 7:18 AM CDT 6:44 PM CDT
Nautical Twilight 6:44 AM CDT 7:18 PM CDT
Astronomical Twilight 6:10 AM CDT 7:52 PM CDT
Moon 6:53 AM CDT (10/27) 6:27 PM CDT (10/27)
Length of Visible Light 11h 26m
Length of Day
10h 26m
Waning Crescent, 0% of the Moon is Illuminated
Oct 27
Waning Crescent
Oct 27
New
Nov 4
First Quarter
Nov 12
Full
Nov 19
Last Quarter

Hourly Weather History & Observations

Time (CDT) Temp. Windchill Dew Point Humidity Pressure Visibility Wind Dir Wind Speed Gust Speed Precip Events Conditions
12:15 AM 37.4 °F 32.1 °F 30.2 °F 75% 29.69 in 10.0 mi SW 6.9 mph - N/A   Clear
12:35 AM 37.4 °F 31.4 °F 33.8 °F 87% 29.69 in 10.0 mi West 8.1 mph - N/A   Clear
12:36 AM 37.4 °F 31.4 °F 33.8 °F 87% 29.69 in 10.0 mi West 8.1 mph - N/A   Clear
12:55 AM 37.4 °F 31.4 °F 33.8 °F 87% 29.68 in 10.0 mi West 8.1 mph - N/A   Clear
1:15 AM 35.6 °F 29.9 °F 33.8 °F 93% 29.69 in 10.0 mi West 6.9 mph - N/A   Clear
1:16 AM 35.6 °F 29.9 °F 33.8 °F 93% 29.69 in 10.0 mi West 6.9 mph - N/A   Clear
1:35 AM 37.4 °F 30.3 °F 35.6 °F 93% 29.69 in 10.0 mi West 10.4 mph - N/A   Clear
1:55 AM 39.2 °F 31.2 °F 37.4 °F 93% 29.69 in 10.0 mi NW 13.8 mph - N/A   Clear
1:56 AM 39.2 °F 31.2 °F 37.4 °F 93% 29.69 in 10.0 mi NW 13.8 mph - N/A   Clear
2:15 AM 39.2 °F 32.0 °F 35.6 °F 87% 29.70 in 10.0 mi NW 11.5 mph - N/A   Clear
2:35 AM 39.2 °F 31.6 °F 35.6 °F 87% 29.72 in 10.0 mi WNW 12.7 mph 18.4 mph N/A   Clear
2:55 AM 39.2 °F 31.2 °F 35.6 °F 87% 29.74 in 10.0 mi WNW 13.8 mph - N/A   Clear
2:56 AM 39.2 °F 32.0 °F 35.6 °F 87% 29.74 in 10.0 mi WNW 11.5 mph 16.1 mph N/A   Clear
3:15 AM 39.2 °F 31.6 °F 35.6 °F 87% 29.75 in 10.0 mi WNW 12.7 mph 19.6 mph N/A   Clear
3:35 AM 39.2 °F 29.8 °F 35.6 °F 87% 29.78 in 10.0 mi WNW 18.4 mph 25.3 mph N/A   Scattered Clouds
3:36 AM 39.2 °F 29.3 °F 35.6 °F 87% 29.78 in 10.0 mi WNW 20.7 mph 25.3 mph N/A   Scattered Clouds
3:55 AM 39.2 °F 29.8 °F 33.8 °F 81% 29.79 in 10.0 mi NW 18.4 mph 26.5 mph N/A   Mostly Cloudy
3:56 AM 39.2 °F 30.2 °F 33.8 °F 81% 29.79 in 10.0 mi NW 17.3 mph 26.5 mph N/A   Mostly Cloudy
4:15 AM 39.2 °F 30.2 °F 33.8 °F 81% 29.80 in 10.0 mi NW 17.3 mph 26.5 mph N/A   Scattered Clouds
4:36 AM 39.2 °F 30.5 °F 33.8 °F 81% 29.80 in 10.0 mi NW 16.1 mph 21.9 mph N/A   Clear
4:55 AM 39.2 °F 30.2 °F 33.8 °F 81% 29.80 in 10.0 mi NW 17.3 mph 21.9 mph N/A   Clear
4:56 AM 39.2 °F 29.8 °F 33.8 °F 81% 29.80 in 10.0 mi NW 18.4 mph 23.0 mph N/A   Clear
5:15 AM 39.2 °F 30.2 °F 33.8 °F 81% 29.82 in 10.0 mi NW 17.3 mph 25.3 mph N/A   Clear
5:35 AM 39.2 °F 29.3 °F 33.8 °F 81% 29.83 in 10.0 mi NW 20.7 mph 26.5 mph N/A   Mostly Cloudy
5:36 AM 39.2 °F 30.2 °F 33.8 °F 81% 29.83 in 10.0 mi NW 17.3 mph 26.5 mph N/A   Mostly Cloudy
5:55 AM 39.2 °F 29.8 °F 33.8 °F 81% 29.82 in 10.0 mi NW 18.4 mph 25.3 mph N/A   Overcast
6:15 AM 39.2 °F 30.2 °F 33.8 °F 81% 29.83 in 10.0 mi NW 17.3 mph 24.2 mph N/A   Overcast
6:35 AM 39.2 °F 30.2 °F 33.8 °F 81% 29.84 in 10.0 mi NW 17.3 mph 20.7 mph N/A   Overcast
6:55 AM 39.2 °F 29.8 °F 33.8 °F 81% 29.84 in 10.0 mi NW 18.4 mph 23.0 mph N/A   Overcast
7:55 AM 39.2 °F 30.2 °F 33.8 °F 81% 29.88 in 10.0 mi NNW 17.3 mph 23.0 mph N/A   Overcast
8:55 AM 39.2 °F 30.5 °F 33.8 °F 81% 29.92 in 10.0 mi NW 16.1 mph 20.7 mph N/A   Overcast
9:55 AM 41.0 °F 31.9 °F 33.8 °F 76% 29.94 in 10.0 mi NW 19.6 mph 28.8 mph N/A   Overcast
10:55 AM 42.8 °F 34.8 °F 33.8 °F 70% 29.96 in 10.0 mi NNW 17.3 mph 26.5 mph N/A   Scattered Clouds
11:55 AM 42.8 °F 34.5 °F 32.0 °F 66% 29.97 in 10.0 mi NNW 18.4 mph - N/A   Overcast
12:55 PM 41.0 °F 32.8 °F 32.0 °F 70% 29.99 in 10.0 mi NNW 16.1 mph 20.7 mph N/A   Overcast
1:55 PM 42.8 °F 35.4 °F 33.8 °F 70% 30.00 in 10.0 mi NW 15.0 mph 19.6 mph N/A   Overcast
2:55 PM 41.0 °F 32.5 °F 32.0 °F 70% 30.00 in 10.0 mi NNW 17.3 mph 24.2 mph N/A   Mostly Cloudy
3:55 PM 39.2 °F 31.6 °F 30.2 °F 70% 30.03 in 10.0 mi NW 12.7 mph - N/A   Overcast
4:55 PM 37.4 °F 28.5 °F 28.4 °F 70% 30.03 in 10.0 mi NW 15.0 mph 20.7 mph N/A   Overcast
5:55 PM 37.4 °F 30.3 °F 28.4 °F 70% 30.04 in 10.0 mi NW 10.4 mph - N/A   Overcast
6:55 PM 37.4 °F 30.3 °F 26.6 °F 65% 30.05 in 10.0 mi NNW 10.4 mph - N/A   Overcast
7:55 PM 35.6 °F 25.5 °F 26.6 °F 70% 30.06 in 10.0 mi NW 17.3 mph - N/A   Overcast
8:55 PM 35.6 °F 27.1 °F 24.8 °F 65% 30.09 in 10.0 mi NW 12.7 mph 18.4 mph N/A   Overcast
9:55 PM 33.8 °F 25.8 °F 21.2 °F 60% 30.11 in 10.0 mi NW 10.4 mph 16.1 mph N/A   Overcast
10:55 PM 33.8 °F 24.3 °F 21.2 °F 60% 30.12 in 10.0 mi NW 13.8 mph - N/A   Overcast
11:55 PM 30.2 °F 21.9 °F 19.4 °F 64% 30.12 in 10.0 mi NW 9.2 mph - N/A   Clear